Location: Sungai Laei
(2.6000°N, 113.7167°E)
Time: 13:41:34
(UTC+00:00)

Cosmos 1825 - Pass Details

Date: 22 May 2022
Orbit: 496 x 499 km, 82.5° (Epoch: 06 July)

Event Time Altitude Azimuth Distance (km) Brightness Sun altitude
Exits shadow 20:24:11 33° 23° (NNE) 845 3.6 -26.3°
Drops below altitude 10° 20:26:21 10° 12° (NNE) 1,685 5.2 -25.8°
Sets 20:28:28 0° 9° (N) 2,564 6.2 -25.4°
